Location: Casone le Fosse
(44.6547°N, 12.1103°E)
Time: 03:32:09
(UTC+00:00)

Cosmos 1417 Rocket - Pass Details

Date: 29 October 2020
Orbit: 952 x 998 km, 83.0° (Epoch: 01 December)

Event Time Altitude Azimuth Distance (km) Brightness Sun altitude
Rises 17:22:30 0° 182° (S) 3,658 7.6 -14.4°
Reaches altitude 10° 17:24:59 10° 181° (S) 2,721 6.9 -14.9°
Maximum altitude 17:31:13 80° 96° (E) 1,008 4.4 -16.0°
Drops below altitude 10° 17:37:35 10° 10° (N) 2,768 6.7 -17.1°
Sets 17:40:07 0° 10° (N) 3,725 7.4 -17.6°
